Location: Saluda
(35.2377°N, 82.3468°W)
Time: 14:32:21
(UTC+00:00)

SR - Pass Details

Date: 05 October 2022
Orbit: 577 x 875 km, 66.7° (Epoch: 28 November)

Event Time Altitude Azimuth Distance (km) Brightness Sun altitude
Rises 01:32:45 0° 209° (SSW) 3,388 ? -29.9°
Reaches altitude 10° 01:35:10 10° 210° (SSW) 2,481 ? -30.4°
Enters shadow 01:38:39 38° 216° (SW) 1,289 ? -31.1°
Maximum altitude 01:40:59 79° 297° (WNW) 892 - -31.5°
Drops below altitude 10° 01:46:54 10° 24° (NNE) 2,523 - -32.7°
Sets 01:49:23 0° 26° (NNE) 3,449 - -33.1°
